Regional Weather Roundup
Issued by NWS

Home | Current Version | Previous Version | Graphics & Text | Print | Product List | Glossary On
Versions: 1 2 3 4 5 6 7 8 9 10 11 12 13 14 15 16 17 18 19 20 21 22 23 24 25 26 27 28 29 30 31 32 33 34 35 36 37 38 39 40 41 42 43 44 45 46 47 48 49 50
000
ASUS43 KFSD 011102
RWRSD

WEATHER ROUNDUP FOR SOUTH DAKOTA
NATIONAL WEATHER SERVICE SIOUX FALLS SD
600 AM CDT SUN MAY 01 2016

NOTE: "FAIR" INDICATES FEW OR NO CLOUDS BELOW 12,000 FEET WITH NO
SIGNIFICANT WEATHER AND/OR OBSTRUCTIONS TO VISIBILITY.


SDZ001>005-009-010-012>017-011200-
NORTHWEST AND NORTH CENTRAL SOUTH DAKOTA

CITY           SKY/WX    TMP DP  RH WIND       PRES   REMARKS
BUFFALO          N/A     29  24  82 W5        30.24R WCI  24
FAITH            N/A     32  25  75 NW7       30.27S WCI  26
MOBRIDGE       CLEAR     33  28  81 N5        30.24R WCI  29
$$

SDZ012>016-024>037-041>051-057-063-072>074-011200-
SOUTHWEST AND SOUTH CENTRAL SOUTH DAKOTA

CITY           SKY/WX    TMP DP  RH WIND       PRES   REMARKS
RAPID CTY ARPT CLOUDY    36  30  79 NW13      30.27R
PIERRE         PTCLDY    34  29  82 NE3       30.22R
CUSTER         CLOUDY    33  23  66 N8        30.25R WCI  26
ELLSWORTH AFB  CLOUDY    39  29  69 N14       30.27R
PHILIP         CLEAR     33  28  81 NW7       30.25R WCI  27
PINE RIDGE     CLOUDY    34  30  85 N7        30.24R WCI  28
WINNER         FAIR      36  33  89 N8        30.18R
$$

SDZ004>011-016>023-039-040-011200-
NORTHEAST SOUTH DAKOTA

CITY           SKY/WX    TMP DP  RH WIND       PRES   REMARKS
ABERDEEN       CLEAR     32  28  85 N7        30.24R WCI  26
WATERTOWN      CLEAR     34  27  75 NE9       30.17S WCI  27
BROOKINGS      PTCLDY    35  30  82 N8        30.15R WCI  29
SISSETON         N/A     31  27  85 N6        30.23R WCI  25
$$

SDZ017-020-022-023-036>040-048>070-011200-
SOUTHEAST SOUTH DAKOTA

CITY           SKY/WX    TMP DP  RH WIND       PRES   REMARKS
SIOUX FALLS    LGT RAIN  41  38  89 NE13      30.11S
HURON          PTCLDY    35  30  82 N7        30.19R WCI  29
MITCHELL       CLOUDY    38  35  89 N9        30.16S
YANKTON        CLOUDY    43  39  87 N14       30.09R
$$

ABBREVIATIONS USED IN REMARKS
   TC - TEMPERATURE IN CELSIUS
  WCI - WIND CHILL INDEX
   HX - HEAT INDEX
  VSB - VISIBILITY





USA.gov is the U.S. government's official web portal to all federal, state and local government web resources and services.